Location: Biltmore Gardens
(41.6070°N, 83.4666°W)
Time: 15:09:27
(UTC+00:00)

Cosmos 2344 - Pass Details

Date: 14 July 2020
Orbit: 1249 x 2993 km, 63.3° (Epoch: 12 August)

Event Time Altitude Azimuth Distance (km) Brightness Sun altitude
Rises 03:17:41 0° 218° (SW) 4,334 6.2 -18.7°
Reaches altitude 10° 03:20:32 10° 219° (SW) 3,281 5.6 -19.0°
Maximum altitude 03:28:04 79° 306° (NW) 1,281 3.6 -19.8°
Drops below altitude 10° 03:36:00 10° 34° (NE) 3,442 6.1 -20.6°
Sets 03:39:04 0° 36° (NE) 4,561 6.8 -20.9°
